Location: Newark
(41.8083°N, 72.2500°W)
Time: 15:05:44
(UTC+00:00)

deb Explorer IX - Pass Details

Date: 06 December 2021
Orbit: 544 x 1082 km, 38.8° (Epoch: 19 January)

Event Time Altitude Azimuth Distance (km) Brightness Sun altitude
Rises 17:49:59 0° 273° (W) 2,853 ? 23.6°
Reaches altitude 10° 17:52:29 10° 265° (W) 1,891 ? 23.5°
Maximum altitude 17:56:26 37° 198° (SSW) 864 ? 23.2°
Drops below altitude 10° 18:00:12 10° 130° (SE) 1,799 ? 23.0°
Sets 18:02:32 0° 122° (ESE) 2,694 ? 22.9°
